Theta_e
342 345 344 340 333 331 329 330 331 331 331 331 331 331 331 332 333 334 334 334 336 336 330 330 333 335 333 333 334 333 332 333 337 337 335 338 341 341 338 337 337 336 337
342 343 343 339 333 332 330 330 330 331 331 331 331 332 334 335 335 335 334 333 334 335 331 330 333 335 334 334 331 332 336 336 334 338 338 336 339 339 336 334 336 337 338
342 341 340 333 332 333 330 330 330 331 332 334 335 336 336 335 335 334 333 332 333 333 332 332 332 333 333 332 328 335 337 339 334 335 337 336 336 338 336 335 334 332 336
343 337 335 333 332 331 332 330 331 334 336 336 335 335 334 335 335 334 333 332 333 333 332 333 333 332 330 328 329 333 340 342 335 333 335 335 334 328 328 329 334 332 334
343 334 333 332 332 331 330 331 333 334 335 335 335 335 333 332 334 336 336 335 335 334 333 333 332 332 332 331 330 333 339 342 340 339 336 334 333 320 321 331 333 331 335
343 336 333 333 332 332 333 334 335 337 336 335 333 333 332 331 331 330 331 332 333 333 334 333 333 334 332 333 331 335 339 342 340 340 335 335 334 325 329 335 332 331 333
342 341 334 333 334 335 337 338 339 338 337 336 335 333 332 331 331 331 331 331 333 333 332 332 332 333 333 333 332 335 344 341 337 340 339 340 334 334 330 333 330 331 331
341 342 341 338 336 336 338 340 339 337 336 335 334 333 333 333 333 333 332 332 331 333 334 334 333 333 333 333 332 334 341 340 337 342 340 341 333 333 334 332 327 328 329
337 339 340 341 340 340 339 339 339 338 336 335 334 335 335 334 335 334 333 334 334 335 335 335 334 333 333 334 333 331 337 338 336 342 339 340 330 333 333 333 331 327 326
334 334 336 337 337 336 336 336 336 336 336 337 336 334 336 336 334 335 337 337 338 336 336 338 337 336 334 330 330 330 330 331 337 340 342 342 333 333 333 332 332 330 328
333 333 333 333 334 335 334 331 331 332 333 334 333 332 331 332 336 337 339 337 331 336 335 336 336 337 337 334 334 334 333 331 340 341 342 343 335 332 333 332 331 331 331
333 334 333 334 332 332 331 332 333 331 332 332 340 343 345 342 343 343 345 344 330 329 329 330 336 330 332 334 340 343 341 336 340 341 343 342 341 330 334 332 333 331 332
341 342 338 342 342 336 335 332 334 338 338 343 344 346 346 346 346 344 345 346 345 343 344 338 343 342 337 341 344 344 345 344 344 345 341 342 341 338 332 329 333 331 331
345 346 347 346 343 346 337 338 340 344 343 342 340 345 345 345 345 344 345 346 347 347 345 346 346 346 346 345 345 345 345 346 345 345 344 344 340 342 340 337 333 332 333
345 347 347 347 344 348 346 348 346 347 346 347 346 343 340 344 346 346 347 348 347 345 344 343 347 346 346 346 345 346 345 346 345 344 344 344 344 343 342 340 339 334 335
346 346 347 345 343 347 345 346 347 348 347 348 346 345 345 346 347 347 348 349 347 347 343 344 344 344 345 345 346 346 346 346 346 345 346 345 346 345 344 344 344 339 336
345 345 344 343 343 346 346 345 345 346 344 347 347 347 346 346 345 346 348 347 348 348 345 346 344 345 344 343 344 345 345 345 345 345 344 346 346 346 347 345 345 342 340
343 343 343 343 343 344 346 343 344 345 344 345 347 347 347 347 351 348 347 346 346 345 345 346 344 343 343 342 342 343 344 345 344 347 347 347 347 348 347 347 346 344 342
343 342 342 343 342 342 341 339 340 343 345 346 347 348 348 350 351 352 349 348 345 346 349 346 346 346 343 342 344 343 344 345 346 345 347 349 347 347 347 347 346 347 347
342 342 342 342 342 340 334 342 345 347 349 348 350 348 350 351 352 352 348 350 345 347 344 346 347 346 343 343 344 344 346 346 348 349 349 348 348 348 347 345 344 345 345
341 341 342 342 343 345 343 347 349 349 349 348 349 350 349 350 350 352 351 346 345 342 343 346 345 343 345 347 348 347 346 345 345 345 345 348 349 346 344 342 341 343 345
341 341 341 342 344 346 347 343 348 348 350 350 349 346 350 351 348 347 348 341 344 342 341 342 344 346 347 349 349 346 347 347 349 347 348 348 346 342 341 341 340 341 341
341 341 342 343 343 347 348 345 345 349 351 352 349 347 342 346 347 347 348 341 342 342 346 347 347 346 346 346 346 346 345 344 347 346 346 345 345 346 342 341 340 341 339
340 341 341 342 344 346 347 343 347 350 351 349 350 345 339 345 348 348 349 344 340 343 341 345 345 344 345 344 345 344 342 342 342 346 346 348 346 345 341 339 340 340 341
340 340 341 344 342 344 343 341 348 350 352 348 344 348 349 348 347 348 351 342 342 347 344 344 345 344 344 344 344 343 344 345 342 341 346 346 346 345 344 340 340 341 341
340 341 343 345 341 342 340 341 342 347 350 351 350 351 351 351 352 351 352 340 343 345 342 343 345 344 344 342 340 340 340 343 338 338 341 347 346 345 344 342 341 340 338
Wind_Speed
17 18 20 22 26 27 28 27 27 26 26 24 22 20 19 18 18 19 20 19 20 18 19 21 22 23 21 19 18 17 18 19 18 18 18 20 19 17 14 16 17 19 17
22 22 21 23 25 27 27 27 26 24 22 22 19 19 18 18 18 20 20 19 19 19 19 21 21 20 18 16 14 15 17 15 12 15 14 16 17 16 14 15 16 16 15
23 24 23 24 24 26 25 24 22 21 20 19 18 18 18 18 19 20 18 17 16 17 18 18 18 18 15 13 13 14 14 12 8 12 12 11 14 14 11 14 14 15 15
23 25 24 24 24 24 23 21 21 19 18 19 19 19 18 17 17 17 15 14 14 14 15 16 14 14 14 13 12 13 13 11 15 10 8 8 10 10 10 14 13 14 16
25 25 25 24 24 23 21 20 19 18 17 18 18 17 17 16 15 15 14 13 12 12 12 13 11 11 13 12 11 11 11 12 9 10 11 9 8 12 15 13 13 14 15
25 24 24 23 22 21 19 18 16 16 16 16 16 15 14 14 13 13 13 13 12 11 12 11 10 8 10 12 10 9 8 11 7 9 9 10 9 11 13 12 13 13 12
26 24 24 22 21 20 18 16 15 15 15 14 14 13 12 11 10 9 9 10 11 10 9 9 8 8 9 11 10 8 7 4 3 6 10 8 8 8 11 11 11 12 12
24 24 23 21 20 18 16 15 14 14 14 13 12 10 9 7 7 6 7 7 8 8 8 8 7 7 7 9 9 9 7 3 5 7 9 7 7 7 8 9 11 11 11
21 22 22 21 19 17 15 14 14 13 13 12 10 8 7 7 6 6 6 5 5 6 7 7 7 6 6 8 10 9 9 5 4 10 6 5 6 8 8 9 11 11 12
21 19 20 20 18 17 15 14 13 12 11 11 10 9 8 8 7 6 6 5 4 4 4 3 4 5 6 7 9 10 8 7 6 8 6 4 5 8 9 10 11 11 12
20 19 17 17 16 15 14 12 11 10 10 10 9 8 7 7 7 8 5 4 3 4 4 4 4 5 6 7 8 7 7 9 8 8 8 7 5 10 12 11 12 11 11
24 21 19 17 15 14 13 12 12 12 12 12 11 11 10 8 6 5 3 3 3 3 3 4 4 5 6 8 8 6 4 10 11 10 12 12 9 12 15 15 12 10 11
25 21 21 17 13 14 12 12 14 14 13 11 10 10 7 5 4 3 1 3 1 3 2 5 4 3 6 7 7 5 10 8 8 5 13 13 14 10 16 16 14 11 10
25 23 21 16 15 12 13 14 13 13 11 9 8 5 7 4 2 2 3 3 3 4 2 5 4 7 7 8 5 5 11 10 7 4 6 11 16 9 15 17 16 18 15
23 22 20 16 10 12 11 11 10 10 8 7 5 6 6 5 3 4 5 7 7 7 7 4 6 8 7 9 9 7 8 8 8 11 7 10 8 9 10 13 16 17 19
24 22 21 15 12 11 11 8 8 7 5 6 5 5 3 2 8 7 9 9 10 11 11 12 9 9 8 7 9 11 10 9 8 6 8 9 8 8 7 9 9 15 16
25 24 23 16 13 14 13 11 9 9 6 4 3 2 3 6 11 10 10 12 12 13 14 17 15 14 12 12 11 10 9 10 12 11 12 9 6 7 4 6 8 10 15
27 27 22 18 16 17 17 15 15 12 8 3 2 4 5 6 5 8 10 11 13 13 13 12 9 12 10 9 7 10 10 10 10 7 7 5 5 5 5 6 6 9 10
27 26 23 20 13 19 17 14 16 16 12 6 6 6 6 5 6 8 9 11 11 11 7 7 10 11 10 7 6 7 7 7 8 11 9 6 4 4 4 6 5 8 10
28 25 23 19 13 9 14 17 18 14 9 7 6 9 10 8 7 9 10 12 10 9 3 7 11 10 8 6 4 4 4 7 8 8 7 4 4 2 1 3 4 2 5
29 28 25 20 17 14 16 20 18 13 11 8 9 9 7 14 10 6 7 7 6 8 6 9 11 9 7 5 4 4 6 7 8 7 6 5 3 4 2 2 5 4 3
32 30 24 20 19 16 12 13 17 16 13 11 11 10 11 10 8 6 3 3 3 6 8 10 10 8 6 3 3 5 4 7 6 6 3 5 5 4 3 2 2 2 4
35 31 24 22 21 18 13 13 20 18 12 11 15 8 7 12 8 6 2 2 3 4 6 5 6 5 5 4 4 3 3 3 6 5 5 5 4 4 4 4 3 2 5
37 31 26 21 22 20 16 18 25 21 12 12 13 11 10 9 7 3 4 4 4 6 4 3 3 5 6 6 7 7 6 7 5 5 6 6 6 5 5 4 2 1 5
39 34 28 21 23 22 20 20 24 20 16 11 8 7 5 8 6 2 4 5 6 5 3 2 2 5 7 9 12 13 11 9 7 8 9 10 10 7 6 3 2 2 1
42 36 31 25 25 24 22 21 21 20 19 19 12 11 7 9 6 3 3 3 6 3 2 3 2 3 5 5 4 7 9 10 9 10 10 14 14 9 6 4 4 2 0
Wind_Direction
139 135 135 134 135 131 130 126 124 122 121 119 117 117 118 119 119 119 116 113 108 107 107 115 118 117 111 102 97 95 97 99 96 102 109 114 115 116 117 123 123 122 121
135 136 137 139 137 136 133 133 129 127 125 123 123 122 120 122 122 122 120 113 111 114 114 121 124 122 116 106 103 104 101 87 92 100 108 110 116 112 112 122 123 120 119
141 142 140 144 142 140 139 134 130 128 125 124 123 122 123 123 119 126 123 117 113 113 117 121 127 131 125 110 104 105 97 80 101 91 103 110 115 125 119 128 122 125 128
146 145 143 146 142 137 139 136 130 126 122 123 123 123 123 120 123 125 124 124 123 119 119 119 123 124 117 112 112 108 104 98 84 120 104 111 111 124 133 132 126 133 131
150 145 145 147 145 142 140 136 136 132 126 126 127 125 121 119 121 124 125 127 126 128 130 127 128 129 122 118 122 119 122 113 111 110 124 111 110 119 130 131 134 137 131
149 147 148 148 147 145 144 144 141 137 135 134 132 128 125 123 124 124 128 130 130 130 134 137 138 139 138 128 137 139 125 95 126 111 123 123 118 127 137 132 139 144 140
149 150 151 153 153 151 151 149 146 142 141 139 137 135 132 131 129 130 133 136 138 139 143 141 144 143 146 143 145 167 127 113 98 134 133 116 114 142 147 145 149 151 145
148 151 152 155 158 160 158 153 150 147 144 144 143 141 141 142 148 152 153 150 148 147 149 148 153 155 163 156 147 166 167 112 59 162 144 132 126 155 155 158 159 155 151
149 153 153 154 155 157 158 157 155 153 151 150 149 149 148 154 160 163 163 152 156 154 150 147 147 148 146 155 160 165 172 170 103 152 156 134 137 164 172 171 159 159 155
153 154 153 153 153 154 154 155 154 154 150 146 145 147 148 148 147 152 151 147 173 185 181 176 165 166 157 161 160 163 171 175 169 169 176 199 172 188 188 187 169 162 158
155 153 153 151 152 155 153 150 151 151 151 148 147 133 137 131 113 117 124 136 159 191 199 201 190 186 187 185 170 170 185 198 187 187 199 216 194 201 198 192 183 172 170
156 155 155 154 150 149 146 146 143 140 137 132 125 136 106 122 135 133 91 112 163 190 188 172 185 194 193 197 183 198 171 203 202 205 200 196 197 193 209 198 184 183 179
148 146 149 144 147 141 138 145 143 133 136 135 132 124 120 119 108 126 69 49 22 224 171 195 251 207 221 191 212 165 186 203 219 260 206 201 200 218 208 211 192 193 196
162 153 148 141 134 128 131 138 149 148 133 125 148 143 152 120 214 252 300 284 285 268 224 229 240 236 214 236 244 194 194 230 241 224 206 222 214 247 220 213 212 215 208
170 165 164 157 149 153 147 149 141 152 149 136 120 140 141 167 247 270 288 271 269 287 283 275 284 256 240 241 236 214 208 243 272 245 241 216 235 245 232 225 226 225 230
177 172 170 168 161 172 160 170 181 178 196 185 156 118 157 234 274 265 275 281 284 286 277 264 259 253 264 266 233 230 244 248 260 254 251 225 236 247 256 249 270 239 235
182 174 177 182 186 188 185 186 178 178 180 146 177 207 226 277 261 261 278 288 294 281 275 261 260 243 255 266 243 242 254 254 257 267 269 267 269 238 263 255 255 248 236
181 181 183 191 199 200 198 205 194 180 195 175 239 234 262 293 317 284 291 292 291 287 278 264 229 228 245 262 242 244 244 240 259 256 250 257 228 242 269 266 239 232 230
184 185 192 195 202 211 217 214 198 189 169 172 214 239 268 290 314 325 317 316 311 308 302 243 212 214 217 240 235 217 213 214 222 239 236 238 228 232 265 288 261 233 233
194 196 194 190 181 175 178 164 161 172 177 213 241 258 264 279 284 311 326 328 342 344 21 150 165 173 195 201 204 187 176 186 184 182 193 209 238 252 138 47 42 238 240
196 194 195 196 187 183 167 170 174 172 177 190 223 249 264 257 274 271 305 335 14 28 79 129 145 152 165 161 145 161 180 187 179 175 187 216 178 151 125 64 21 21 297
196 196 202 200 194 193 182 176 178 173 193 211 228 248 241 246 259 280 312 334 47 62 105 127 136 143 150 152 168 175 169 177 190 156 146 179 149 130 153 119 142 282 328
194 199 205 206 204 198 187 179 183 195 208 229 238 272 199 233 234 267 298 329 128 105 115 131 145 143 151 145 161 182 168 158 167 169 159 171 149 172 173 181 209 190 318
200 201 206 212 210 200 193 182 179 190 205 208 216 228 209 219 219 227 272 262 192 161 128 157 158 166 167 162 144 139 124 124 148 147 176 189 175 179 190 208 174 285 299
200 202 204 210 206 199 196 193 192 197 210 214 195 201 194 178 191 221 280 248 199 199 167 177 176 156 160 165 162 155 157 154 149 150 176 189 173 189 189 196 204 235 114
202 202 202 204 200 198 197 198 202 201 210 222 236 200 204 196 201 248 280 251 226 226 263 247 227 192 174 182 183 186 181 183 175 160 144 171 187 165 179 192 180 175 291